Location: Baia Mare
(47.6567°N, 23.5850°E)
Time: 13:44:20
(UTC+02:00)

ISS - Pass Details

Date: 10 December 2018
Orbit: 401 x 408 km, 51.6° (Epoch: 16 December)

Event Time Altitude Azimuth Distance (km) Brightness Sun altitude
Rises 18:29:43 0° 292° (WNW) 2,319 0.9 -18.6°
Reaches altitude 10° 18:31:52 10° 285° (WNW) 1,456 -0.1 -18.9°
Maximum altitude 18:34:57 41° 214° (SSW) 600 -2.7 -19.4°
Enters shadow 18:36:07 28° 165° (SSE) 782 -2.5 -19.6°
